Location: Curicchi
(45.0167°N, 12.0500°E)
Time: 03:36:15
(UTC+00:00)

Envisat - Pass Details

Date: 06 August 2021
Orbit: 764 x 766 km, 98.2° (Epoch: 22 September)

Event Time Altitude Azimuth Distance (km) Brightness Sun altitude
Rises 03:17:48 0° 29° (NNE) 3,243 7.5 -7.8°
Reaches altitude 10° 03:20:52 10° 48° (NE) 2,310 7.2 -7.3°
Maximum altitude 03:24:17 18° 90° (E) 1,817 5.9 -6.8°
Drops below altitude 10° 03:27:41 10° 133° (SE) 2,298 5.7 -6.3°
Sets 03:30:43 0° 152° (SSE) 3,218 6.2 -5.9°
